GW2100 Weather Reports


time (UTC)temp
F
wind
direction
speed
knots
gust
knots
rain 1hr
in
rain 24hr
in
rain mn
in
humidity
%
barometer
mb
20260507230503 61 146 1.7 4.3 0.00 0.00 0.00 30 1010.1
20260507230004 62 134 1.7 7.0 0.00 0.00 0.00 29 1010.0
20260507225503 62 153 2.6 7.0 0.00 0.00 0.00 31 1009.9
20260507225003 62 124 3.5 7.0 0.00 0.00 0.00 31 1009.8
20260507224504 62 109 3.5 7.0 0.00 0.00 0.00 30 1009.8
20260507224004 62 73 3.5 7.0 0.00 0.00 0.00 29 1009.8
20260507223503 62 105 2.6 7.8 0.00 0.00 0.00 29 1009.7
20260507223003 63 147 3.5 7.8 0.00 0.00 0.00 28 1009.6
20260507222503 63 143 5.2 7.8 0.00 0.00 0.00 28 1009.5
20260507222003 63 113 5.2 7.8 0.00 0.00 0.00 27 1009.5
20260507221503 63 132 4.3 7.8 0.00 0.00 0.00 28 1009.6
20260507221003 63 99 1.7 8.7 0.00 0.00 0.00 27 1009.7
20260507220503 63 114 3.5 8.7 0.00 0.00 0.00 27 1009.7
20260507220003 63 117 5.2 8.7 0.00 0.00 0.00 27 1009.8
20260507215503 62 101 3.5 7.8 0.00 0.00 0.00 30 1009.9
20260507215003 62 139 2.6 7.8 0.00 0.00 0.00 30 1009.9
20260507214503 62 185 2.6 10.4 0.00 0.00 0.00 30 1010.0
20260507214003 62 177 4.3 11.3 0.00 0.00 0.00 29 1010.1
20260507213503 62 186 5.2 15.6 0.00 0.00 0.00 29 1010.1
20260507213003 62 179 7.8 15.6 0.00 0.00 0.00 28 1010.1
20260507212503 63 168 5.2 15.6 0.00 0.00 0.00 24 1010.1
20260507212002 62 181 3.5 7.8 0.00 0.00 0.00 25 1010.3
20260507211503 62 168 3.5 6.1 0.00 0.00 0.00 25 1010.4
20260507211003 63 118 1.7 7.0 0.00 0.00 0.00 25 1010.3
20260507210503 62 96 3.5 10.4 0.00 0.00 0.00 25 1010.3
20260507210003 62 126 3.5 10.4 0.00 0.00 0.00 24 1010.2
20260507205503 62 106 6.1 10.4 0.00 0.00 0.00 24 1010.3
20260507205003 62 146 3.5 7.8 0.00 0.00 0.00 25 1010.2
20260507204503 62 152 3.5 7.8 0.00 0.00 0.00 24 1010.2
20260507204003 62 124 6.1 7.8 0.00 0.00 0.00 24 1010.2
20260507203503 62 129 3.5 10.4 0.00 0.00 0.00 23 1010.2
20260507203003 62 106 4.3 10.4 0.00 0.00 0.00 23 1010.4
20260507202502 62 116 5.2 10.4 0.00 0.00 0.00 24 1010.4
20260507202003 62 107 6.1 11.3 0.00 0.00 0.00 23 1010.6
20260507201502 62 143 4.3 11.3 0.00 0.00 0.00 23 1010.6
20260507201003 61 156 6.1 11.3 0.00 0.00 0.00 23 1010.7
20260507200503 62 142 5.2 11.3 0.00 0.00 0.00 23 1010.7
20260507200002 62 139 5.2 8.7 0.00 0.00 0.00 22 1010.8
20260507195503 63 121 6.1 8.7 0.00 0.00 0.00 21 1010.9
20260507195003 62 182 4.3 8.7 0.00 0.00 0.00 21 1010.9
20260507194503 64 170 4.3 8.7 0.00 0.00 0.00 21 1010.8
20260507194003 63 147 5.2 8.7 0.00 0.00 0.00 21 1010.8
20260507193502 62 113 3.5 7.0 0.00 0.00 0.00 21 1011.0
20260507193003 62 141 3.5 7.0 0.00 0.00 0.00 22 1011.0
20260507192503 62 144 3.5 8.7 0.00 0.00 0.00 21 1011.0
20260507192003 61 103 2.6 8.7 0.00 0.00 0.00 21 1011.0
20260507191502 63 128 5.2 8.7 0.00 0.00 0.00 21 1011.1
20260507191003 62 110 4.3 8.7 0.00 0.00 0.00 21 1011.0
20260507190503 61 149 3.5 8.7 0.00 0.00 0.00 21 1011.1
20260507190004 61 128 3.5 7.0 0.00 0.00 0.00 21 1011.2
20260507185504 61 106 1.7 7.0 0.00 0.00 0.00 22 1011.2
20260507185004 60 91 1.7 6.1 0.00 0.00 0.00 22 1011.2
20260507184504 61 20 2.6 7.0 0.00 0.00 0.00 22 1011.3
20260507184004 59 52 3.5 7.8 0.00 0.00 0.00 23 1011.2
20260507183504 58 169 3.5 7.8 0.00 0.00 0.00 22 1011.1
20260507183004 58 139 3.5 7.8 0.00 0.00 0.00 22 1011.0
20260507182504 59 104 3.5 7.8 0.00 0.00 0.00 22 1011.1
20260507182004 60 95 4.3 7.8 0.00 0.00 0.00 22 1011.1
20260507181504 59 65 1.7 7.0 0.00 0.00 0.00 23 1011.2
20260507181004 57 71 1.7 7.0 0.00 0.00 0.00 23 1011.2
20260507180504 57 97 4.3 7.0 0.00 0.00 0.00 23 1011.3
20260507180004 56 180 0.9 7.8 0.00 0.00 0.00 24 1011.3
20260507175503 57 46 3.5 7.8 0.00 0.00 0.00 23 1011.4
20260507175004 57 357 4.3 8.7 0.00 0.00 0.00 23 1011.5
20260507174503 58 335 4.3 8.7 0.00 0.00 0.00 23 1011.6
20260507174004 58 3 4.3 8.7 0.00 0.00 0.00 23 1011.7
20260507173504 57 36 2.6 7.0 0.00 0.00 0.00 24 1011.7
20260507173004 56 19 3.5 7.8 0.00 0.00 0.00 25 1011.7
20260507172504 56 12 5.2 7.8 0.00 0.00 0.00 24 1011.7
20260507172004 56 30 5.2 7.8 0.00 0.00 0.00 25 1011.8
20260507171503 56 9 2.6 7.8 0.00 0.00 0.00 25 1011.8
20260507171004 56 38 5.2 10.4 0.00 0.00 0.00 25 1011.7
20260507170503 56 25 6.1 11.3 0.00 0.00 0.00 25 1011.6
20260507170004 56 25 6.1 11.3 0.00 0.00 0.00 25 1011.5
20260507165503 56 5 7.8 13.0 0.00 0.00 0.00 24 1011.6
20260507165003 56 8 7.0 13.9 0.00 0.00 0.00 25 1011.7
20260507164503 55 25 8.7 13.9 0.00 0.00 0.00 25 1011.6
20260507164004 55 24 9.6 13.9 0.00 0.00 0.00 25 1011.6
20260507163503 55 14 10.4 14.8 0.00 0.00 0.00 25 1011.5
20260507163003 56 4 9.6 15.6 0.00 0.00 0.00 24 1011.5
20260507162504 56 8 11.3 15.6 0.00 0.00 0.00 24 1011.5
20260507162004 56 11 12.2 15.6 0.00 0.00 0.00 24 1011.5
20260507161504 56 19 9.6 14.8 0.00 0.00 0.00 25 1011.4
20260507161003 56 27 9.6 14.8 0.00 0.00 0.00 25 1011.5
20260507160503 56 13 8.7 14.8 0.00 0.00 0.00 24 1011.4
20260507160004 57 15 8.7 13.9 0.00 0.00 0.00 25 1011.3
20260507155504 58 10 8.7 13.9 0.00 0.00 0.00 24 1011.4
20260507155003 58 16 9.6 13.9 0.00 0.00 0.00 23 1011.3
20260507154503 59 32 7.8 13.0 0.00 0.00 0.00 24 1011.3
20260507154004 57 19 7.0 13.0 0.00 0.00 0.00 24 1011.4
20260507153504 57 29 7.8 13.0 0.00 0.00 0.00 24 1011.4
20260507153003 57 29 7.8 13.0 0.00 0.00 0.00 24 1011.4
20260507152503 58 22 7.0 11.3 0.00 0.00 0.00 23 1011.4
20260507152004 57 38 5.2 11.3 0.00 0.00 0.00 25 1011.3
20260507151503 57 17 7.0 11.3 0.00 0.00 0.00 24 1011.4
20260507151003 57 24 6.1 10.4 0.00 0.00 0.00 25 1011.4
20260507150503 56 28 6.1 11.3 0.00 0.00 0.00 24 1011.5
20260507150006 56 18 6.1 11.3 0.00 0.00 0.00 24 1011.6
20260507145503 55 3 7.0 11.3 0.00 0.00 0.00 24 1011.7
20260507145003 55 15 7.8 10.4 0.00 0.00 0.00 24 1011.7
20260507144503 55 12 6.1 10.4 0.00 0.00 0.00 25 1011.7
20260507144004 55 28 6.1 8.7 0.00 0.00 0.00 25 1011.6
20260507143503 55 14 5.2 8.7 0.00 0.00 0.00 26 1011.6
20260507143004 55 357 5.2 8.7 0.00 0.00 0.00 26 1011.6
20260507142503 54 347 4.3 7.0 0.00 0.00 0.00 27 1011.6
20260507142004 54 6 4.3 6.1 0.00 0.00 0.00 27 1011.6
20260507141504 53 3 4.3 6.1 0.00 0.00 0.00 28 1011.6
20260507141004 52 354 2.6 5.2 0.00 0.00 0.00 28 1011.5
20260507140503 51 319 1.7 5.2 0.00 0.00 0.00 30 1011.4
20260507140003 51 318 3.5 5.2 0.00 0.00 0.00 29 1011.4
20260507135503 51 310 3.5 6.1 0.00 0.00 0.00 29 1011.4
20260507135003 50 294 3.5 6.1 0.00 0.00 0.00 30 1011.4
20260507134503 49 290 4.3 6.1 0.00 0.00 0.00 31 1011.3
20260507134003 49 308 4.3 6.1 0.00 0.00 0.00 31 1011.2
20260507133503 49 294 3.5 7.8 0.00 0.00 0.00 31 1011.2
20260507133003 48 289 4.3 7.8 0.00 0.00 0.00 31 1011.2
20260507132503 47 292 5.2 7.8 0.00 0.00 0.00 32 1011.2
20260507132003 47 293 5.2 7.0 0.00 0.00 0.00 31 1011.2
20260507131503 47 290 4.3 7.0 0.00 0.00 0.00 31 1011.1
20260507131003 47 289 4.3 7.8 0.00 0.00 0.00 32 1011.0
20260507130504 46 288 4.3 7.8 0.00 0.00 0.00 32 1010.9
20260507130003 46 288 5.2 7.8 0.00 0.00 0.00 32 1010.9
20260507125503 46 292 6.1 7.8 0.00 0.00 0.00 33 1010.9
20260507125003 45 289 5.2 8.7 0.00 0.00 0.00 33 1010.8
20260507124503 44 283 5.2 8.7 0.00 0.00 0.00 34 1010.8
20260507124003 44 288 6.1 10.4 0.00 0.00 0.00 34 1010.8
20260507123503 43 285 6.1 10.4 0.00 0.00 0.00 35 1010.7
20260507123003 43 291 7.0 10.4 0.00 0.00 0.00 36 1010.7
20260507122503 42 293 6.1 8.7 0.00 0.00 0.00 36 1010.5
20260507122004 42 293 6.1 7.8 0.00 0.00 0.00 37 1010.5
20260507121503 42 291 6.1 8.7 0.00 0.00 0.00 37 1010.5
20260507121003 42 280 6.1 10.4 0.00 0.00 0.00 37 1010.5
20260507120503 41 278 6.1 10.4 0.00 0.00 0.00 37 1010.5
20260507120004 41 278 7.0 10.4 0.00 0.00 0.00 37 1010.5
20260507115503 41 272 6.1 10.4 0.00 0.00 0.00 37 1010.4
20260507115003 41 273 6.1 10.4 0.00 0.00 0.00 37 1010.3
20260507114503 41 277 7.0 8.7 0.00 0.00 0.00 36 1010.3
20260507114003 42 278 6.1 8.7 0.00 0.00 0.00 36 1010.2
20260507113503 41 270 6.1 8.7 0.00 0.00 0.00 36 1010.1
20260507113003 41 266 5.2 8.7 0.00 0.00 0.00 36 1010.1
20260507112503 41 269 5.2 7.8 0.00 0.00 0.00 36 1010.0
20260507112003 42 279 5.2 7.0 0.00 0.00 0.00 35 1010.1
20260507111504 42 278 5.2 7.8 0.00 0.00 0.00 34 1010.0
20260507111003 43 266 5.2 7.8 0.00 0.00 0.00 33 1010.0
20260507110503 43 262 4.3 7.8 0.00 0.00 0.00 33 1010.0
20260507110003 43 270 5.2 7.0 0.00 0.00 0.00 33 1009.9
20260507105503 42 269 4.3 7.0 0.00 0.00 0.00 34 1009.8
20260507105003 42 266 4.3 7.0 0.00 0.00 0.00 34 1009.8
20260507104503 42 271 4.3 7.0 0.00 0.00 0.00 34 1009.7
20260507104003 42 274 4.3 7.0 0.00 0.00 0.00 34 1009.7
20260507103503 42 271 4.3 7.0 0.00 0.00 0.00 34 1009.7
20260507103003 43 266 4.3 7.0 0.00 0.00 0.00 34 1009.7
20260507102503 43 264 3.5 7.0 0.00 0.00 0.00 33 1009.6
20260507102003 43 271 4.3 7.0 0.00 0.00 0.00 33 1009.6
20260507101503 43 273 4.3 7.8 0.00 0.00 0.00 33 1009.7
20260507101003 43 275 4.3 7.8 0.00 0.00 0.00 33 1009.6
20260507100503 43 265 5.2 7.8 0.00 0.00 0.00 33 1009.7
20260507100003 43 264 4.3 7.8 0.00 0.00 0.00 32 1009.7
20260507095503 43 263 4.3 7.8 0.00 0.00 0.00 33 1009.7
20260507095003 42 266 4.3 7.8 0.00 0.00 0.00 34 1009.7
20260507094503 43 272 4.3 7.0 0.00 0.00 0.00 33 1009.8
20260507094003 43 270 4.3 7.8 0.00 0.00 0.00 33 1009.7
20260507093502 43 270 4.3 7.8 0.00 0.00 0.00 33 1009.7
20260507093003 43 271 4.3 7.8 0.00 0.00 0.00 33 1009.6
20260507092503 43 275 5.2 7.8 0.00 0.00 0.00 33 1009.6
20260507092002 42 273 5.2 7.8 0.00 0.00 0.00 33 1009.5
20260507091503 42 278 5.2 8.7 0.00 0.00 0.00 33 1009.5
20260507091002 42 280 6.1 8.7 0.00 0.00 0.00 33 1009.4
20260507090503 42 277 6.1 10.4 0.00 0.00 0.00 34 1009.4
20260507090002 42 280 7.0 10.4 0.00 0.00 0.00 34 1009.4
20260507085503 42 281 7.0 10.4 0.00 0.00 0.00 34 1009.4
20260507085003 42 280 7.0 10.4 0.00 0.00 0.00 34 1009.3
20260507084502 42 277 7.0 10.4 0.00 0.00 0.00 34 1009.3
20260507084003 42 279 6.1 8.7 0.00 0.00 0.00 34 1009.3
20260507083502 42 279 6.1 8.7 0.00 0.00 0.00 34 1009.3
20260507083005 42 280 6.1 8.7 0.00 0.00 0.00 34 1009.3
20260507082504 42 286 6.1 8.7 0.00 0.00 0.00 34 1009.4
20260507082004 42 289 5.2 7.0 0.00 0.00 0.00 34 1009.4
20260507081503 42 288 5.2 7.0 0.00 0.00 0.00 34 1009.5
20260507081004 42 286 5.2 7.0 0.00 0.00 0.00 34 1009.5
20260507080503 42 294 4.3 7.0 0.00 0.00 0.00 34 1009.6
20260507080004 42 286 4.3 6.1 0.00 0.00 0.00 34 1009.7
20260507075504 42 289 4.3 6.1 0.00 0.00 0.00 34 1009.8
20260507075004 42 287 3.5 7.0 0.00 0.00 0.00 34 1009.9
20260507074504 42 281 3.5 7.0 0.00 0.00 0.00 33 1009.9
20260507074003 43 270 4.3 7.0 0.00 0.00 0.00 33 1009.9
20260507073504 42 260 2.6 6.1 0.00 0.00 0.00 33 1009.9
20260507073004 42 271 2.6 6.1 0.00 0.00 0.00 33 1009.9
20260507072503 42 265 2.6 6.1 0.00 0.00 0.00 33 1009.9
20260507072004 42 270 0.9 4.3 0.00 0.00 0.00 35 1009.8
20260507071503 43 306 0.9 2.6 0.00 0.00 0.00 34 1009.9
20260507071003 44 241 1.7 2.6 0.00 0.00 0.00 32 1009.9
20260507070503 44 254 0.9 2.6 0.00 0.00 0.00 32 1009.9
20260507070008 44 288 0.9 2.6 0.00 0.00 0.00 33 1010.0
20260507065504 44 208 1.7 2.6 0.00 0.00 0.00 33 1010.0
20260507065004 44 191 1.7 2.6 0.00 0.00 0.00 33 1010.0
20260507064504 44 187 0.9 2.6 0.00 0.00 0.00 34 1010.1
20260507064004 44 228 0.9 1.7 0.00 0.00 0.00 33 1010.3
20260507063503 44 202 0.9 1.7 0.00 0.00 0.00 35 1010.3
20260507063004 44 204 0.9 4.3 0.00 0.00 0.00 36 1010.3
20260507062504 43 219 0.9 4.3 0.00 0.00 0.00 37 1010.4
20260507062004 43 277 1.7 4.3 0.00 0.00 0.00 36 1010.5
20260507061503 44 163 1.7 2.6 0.00 0.00 0.00 35 1010.5
20260507061004 44 178 0.9 1.7 0.00 0.00 0.00 34 1010.5
20260507060504 45 189 0.9 2.6 0.00 0.00 0.00 34 1010.6
20260507060004 45 211 0.0 2.6 0.00 0.00 0.00 34 1010.5
20260507055503 45 234 1.7 4.3 0.00 0.00 0.00 33 1010.6
20260507055003 45 267 1.7 4.3 0.00 0.00 0.00 34 1010.6
20260507054504 45 261 1.7 4.3 0.00 0.00 0.00 34 1010.6
20260507054004 44 274 2.6 4.3 0.00 0.00 0.00 35 1010.7
20260507053503 45 269 2.6 4.3 0.00 0.00 0.00 34 1010.6
20260507053004 45 242 1.7 5.2 0.00 0.00 0.00 34 1010.6
20260507052503 45 232 2.6 5.2 0.00 0.00 0.00 33 1010.7
20260507052004 45 224 2.6 5.2 0.00 0.00 0.00 34 1010.6
20260507051504 45 227 2.6 5.2 0.00 0.00 0.00 34 1010.7
20260507051004 45 217 1.7 4.3 0.00 0.00 0.00 33 1010.7
20260507050503 46 218 1.7 4.3 0.00 0.00 0.00 33 1010.7
20260507050003 46 225 0.9 5.2 0.00 0.00 0.00 33 1010.8
20260507045504 46 211 1.7 6.1 0.00 0.00 0.00 33 1010.9
20260507045004 46 198 3.5 6.1 0.00 0.00 0.00 33 1010.9
20260507044503 46 200 4.3 7.8 0.00 0.00 0.00 33 1010.9
20260507044004 46 199 4.3 7.8 0.00 0.00 0.00 33 1010.9
20260507043503 46 196 5.2 8.7 0.00 0.00 0.00 33 1011.0
20260507043004 46 192 7.0 8.7 0.00 0.00 0.00 33 1011.0
20260507042503 46 192 6.1 8.7 0.00 0.00 0.00 33 1011.0
20260507042005 46 190 6.1 7.8 0.00 0.00 0.00 33 1011.2
20260507041504 46 190 5.2 7.8 0.00 0.00 0.00 33 1011.2
20260507041003 46 190 5.2 6.1 0.00 0.00 0.00 33 1011.3
20260507040504 47 191 4.3 6.1 0.00 0.00 0.00 32 1011.4
20260507040004 46 185 5.2 7.0 0.00 0.00 0.00 33 1011.5
20260507035503 47 181 5.2 7.0 0.00 0.00 0.00 32 1011.5
20260507035003 47 187 4.3 7.0 0.00 0.00 0.00 31 1011.5
20260507034503 47 214 1.7 7.0 0.00 0.00 0.00 32 1011.7
20260507034004 47 193 5.2 7.0 0.00 0.00 0.00 32 1011.8
20260507033503 47 188 5.2 7.0 0.00 0.00 0.00 32 1011.8
20260507033003 47 197 3.5 6.1 0.00 0.00 0.00 32 1011.9
20260507032504 47 184 4.3 6.1 0.00 0.00 0.00 32 1011.9
20260507032003 47 186 3.5 6.1 0.00 0.00 0.00 32 1011.9
20260507031503 48 186 4.3 6.1 0.00 0.00 0.00 32 1012.0
20260507031003 48 193 4.3 6.1 0.00 0.00 0.00 31 1012.0
20260507030503 48 189 4.3 5.2 0.00 0.00 0.00 31 1012.1
20260507030004 48 183 3.5 5.2 0.00 0.00 0.00 31 1012.1
20260507025503 49 181 2.6 4.3 0.00 0.00 0.00 30 1012.1
20260507025003 49 178 2.6 4.3 0.00 0.00 0.00 30 1012.1
20260507024503 49 181 2.6 4.3 0.00 0.00 0.00 30 1012.1
20260507024004 49 186 3.5 4.3 0.00 0.00 0.00 30 1012.2
20260507023503 49 170 2.6 4.3 0.00 0.00 0.00 30 1012.2
20260507023004 49 161 2.6 5.2 0.00 0.00 0.00 30 1012.2
20260507022504 49 155 2.6 6.1 0.00 0.00 0.00 29 1012.2
20260507022003 49 153 3.5 6.1 0.00 0.00 0.00 29 1012.2
20260507021504 49 149 5.2 6.1 0.00 0.00 0.00 29 1012.2
20260507021003 49 144 5.2 6.1 0.00 0.00 0.00 29 1012.3
20260507020503 50 142 4.3 5.2 0.00 0.00 0.00 28 1012.3
20260507020004 50 142 4.3 5.2 0.00 0.00 0.00 28 1012.3
20260507015503 50 138 3.5 5.2 0.00 0.00 0.00 27 1012.3
20260507015004 50 135 3.5 5.2 0.00 0.00 0.00 27 1012.3
20260507014504 50 133 3.5 5.2 0.00 0.00 0.00 27 1012.3
20260507014003 50 124 4.3 5.2 0.00 0.00 0.00 28 1012.3
20260507013503 50 123 3.5 5.2 0.00 0.00 0.00 28 1012.3
20260507013003 51 134 3.5 6.1 0.00 0.00 0.00 27 1012.3
20260507012503 51 152 3.5 7.0 0.00 0.00 0.00 27 1012.3
20260507012003 51 142 4.3 7.0 0.00 0.00 0.00 27 1012.3
20260507011503 51 139 5.2 7.0 0.00 0.00 0.00 26 1012.3
20260507011004 51 133 4.3 7.8 0.00 0.00 0.00 26 1012.3
20260507010503 51 146 4.3 7.8 0.00 0.00 0.00 26 1012.3
20260507010004 51 141 6.1 7.8 0.00 0.00 0.00 27 1012.3
20260507005503 52 145 5.2 7.8 0.00 0.00 0.00 26 1012.3
20260507005004 52 147 5.2 8.7 0.00 0.00 0.00 26 1012.2
20260507004503 52 132 6.1 8.7 0.00 0.00 0.00 26 1012.2
20260507004003 52 119 4.3 8.7 0.00 0.00 0.00 26 1012.3
20260507003503 52 117 4.3 8.7 0.00 0.00 0.00 26 1012.4
20260507003003 52 138 6.1 10.4 0.00 0.00 0.00 26 1012.4
20260507002503 52 142 3.5 11.3 0.00 0.00 0.00 26 1012.5
20260507002003 52 133 7.8 11.3 0.00 0.00 0.00 25 1012.5
20260507001503 53 120 7.0 11.3 0.00 0.00 0.00 25 1012.6
20260507001003 53 116 5.2 8.7 0.00 0.00 0.00 25 1012.7
20260507000503 54 78 2.6 7.0 0.00 0.00 0.00 25 1012.8
20260507000003 53 64 2.6 7.8 0.00 0.00 0.00 25 1012.9
20260506235503 53 70 3.5 8.7 0.00 0.00 0.00 24 1012.9
20260506235003 53 55 4.3 8.7 0.00 0.00 0.00 24 1013.0
20260506234503 54 71 4.3 8.7 0.00 0.00 0.00 24 1013.0
20260506234003 54 90 4.3 7.0 0.00 0.00 0.00 25 1013.1
20260506233503 54 95 3.5 7.0 0.00 0.00 0.00 24 1013.2
20260506233003 54 52 2.6 7.0 0.00 0.00 0.00 24 1013.2
20260506232503 54 281 0.9 4.3 0.00 0.00 0.00 24 1013.3
20260506232003 54 309 1.7 6.1 0.00 0.00 0.00 24 1013.3
20260506231503 54 42 1.7 6.1 0.00 0.00 0.00 23 1013.3
20260506231003 55 2 3.5 6.1 0.00 0.00 0.00 23 1013.3